Terug naar catalogus

DMSP 5D-3 F16 DEB

ActiefSSO
NORAD 28080·DEBRIS·🇺🇸 United States

Gelanceerd Oct 18, 2003 vanaf Vandenberg Space Force Base

Loading…

Volgende Passages (komende 24 uur)

TLE

VersSource: Space-Track

Epoch: Sep 14, 2026, 10:31 UTC

1 28080U 03048D   26257.43876699  .00002018  00000-0  64484-3 0  9997
2 28080  98.6012 256.9812 0004646 153.9598 206.1825 14.40766222186811

Volg DMSP 5D-3 F16 DEB in realtime met AllMySat

Download on the App Store